Regional Weather Roundup
Issued by NWS Lake Charles, LA

Home | Current Version | Previous Version | Text Only | Print | Product List | Glossary On
Versions: 1 2 3 4 5 6 7 8 9 10 11 12 13 14 15 16 17 18 19 20 21 22 23 24 25 26 27 28 29 30 31 32 33 34 35 36 37 38 39 40 41 42 43 44 45 46 47 48 49 50
000
ASUS44 KLCH 270710
RWRLCH
RWRLCH
REGIONAL WEATHER ROUNDUP
NATIONAL WEATHER SERVICE LAKE CHARLES LA
100 AM CST SAT DEC 27 2014

Note: "fair" indicates few or no clouds below 12,000 feet with no
significant weather and/or obstructions to visibility.


ACROSS SOUTHEAST TEXAS

CITY           SKY/WX    TMP DP  RH WIND       PRES   REMARKS
BEAUMONT       CLOUDY    64  62  93 SE13      30.03S
BEAUMONT CITY    N/A     63  63  99 S5        30.03S
ORANGE         CLOUDY    63  62  96 E8        30.05F
JASPER         CLOUDY    61  60  97 E6        30.05F FOG
$$

ACROSS CENTRAL LOUISIANA

CITY           SKY/WX    TMP DP  RH WIND       PRES   REMARKS
LEESVILLE      CLOUDY    60  59  96 SE12      30.05F
FULLERTON      CLOUDY    63  58  83 VRB5      30.04F
ALEXANDRIA INT CLOUDY    59  56  89 SE9       30.07F
ESLER FIELD    CLOUDY    61  56  83 SE8       30.09F
DERIDDER       CLOUDY    61  60  96 SE8       30.08S
OAKDALE        CLOUDY    61  58  91 E5        30.08F
OPELOUSAS      CLOUDY    58  57  96 E8        30.09S
$$

ACROSS SOUTHWEST AND SOUTH CENTRAL LOUISIANA

CITY           SKY/WX    TMP DP  RH WIND       PRES   REMARKS
SULPHUR        CLOUDY    63  62  96 E8        30.05F
LAKE CHARLES   CLOUDY    62  60  93 SE12      30.05F
CHENNAULT INT  CLOUDY    63  61  94 E6        30.06S
CAMERON PHI      N/A     61  61 100 E12G18    30.07S
DEQUINCY       CLOUDY    62  62 100 SE5       30.05F
JENNINGS       CLOUDY    61  59  95 E13G18    30.07S
LAFAYETTE      CLOUDY    61  59  93 E5        30.09F
NEW IBERIA     CLOUDY    61  59  93 E9        30.09F
ABBEVILLE      CLOUDY    60  60  97 E8        30.08F
PATTERSON      CLOUDY    59  57  94 NE7       30.11F
SALT POINT       N/A     72  61  68 VRB3      30.08F
$$

SELECTED SITES ACROSS THE REGION

CITY           SKY/WX    TMP DP  RH WIND       PRES   REMARKS
HOUSTON BUSH   CLOUDY    67  66  97 SE6       29.99F
HOUSTON HOBBY  CLOUDY    70  68  93 S10       29.98F
GALVESTON      CLOUDY    66  66 100 SE9       30.01S
COLLEGE STAT   CLOUDY    66  64  93 SE6       29.97S
CONROE         CLOUDY    65  63  93 SE3       30.00S
HUNTSVILLE     CLOUDY    66  63  90 SE5       29.99F
LUFKIN         LGT RAIN  65  60  84 SE8       30.02S
SHREVEPORT     CLOUDY    60  58  92 SE9       30.04F
MONROE         CLOUDY    58  56  93 S8        30.11S
NATCHEZ MS     CLOUDY    59  54  82 SE12G18   30.13S
BATON ROUGE    LGT RAIN  60  58  92 E7        30.13S
N.O. INTL ARPT CLOUDY    66  58  75 SE12      30.10F
SLIDELL        CLOUDY    63  58  83 SE8       30.12F
$$

MARINE REPORTS

STATION/POSITION TIME  TEMP    WIND        PRES    VSBY  WAVE
                       AIR SEA DIR/SP/G                  HT/PER
                 (UTC) (F)     (DEG/KT/KT) (MB)    (MI)  (FT/S)
BUOY 30 S HIGH I 0700   64 61  120/ 10/ 12 1015.6F         4/ 8
SEA RIM ST PARK  0700   62     110/ 10/ 12 1017.2F
PORT ARTHUR      0700      58  130/  2/  7 1017.0S
SABINE PASS N    0700   62 60  130/  9/ 12 1016.8S
TEXAS POINT      NOT AVBL
CALCASIEU PASS   0700   61 60  110/ 12/ 15   N/A
LK CHARLES BEACH 0700   63 57              1017.6F
MARSH ISLAND     NOT AVBL
FRESH WATER LOCK 0700   61 58   80/  7/ 10 1018.1R
AMERADA PASS     0700   62 52  300/  2/  3 1019.2R
$$


USA.gov is the U.S. government's official web portal to all federal, state and local government web resources and services.